Content
SEND FEEDBACK

Daily
Averages
Monthly
Summary
United States of America

NICHOLASVILLE, KENTUCKY


Home > North America > United States > Kentucky
Elevation: 16 meters     Latitude: 37 45N     Longitude: 084 35W

WEATHER
 
SELECT A DAY
Number of Records: 149,337;   Date Range: 3/25/08 - 7/21/14
 
SHARE

PRINT THIS DATA

[ ← Previous Day ]
WEATHER ALMANAC - 23 JANUARY, 2013
[ Next Day → ]
[ °F ]   °C
Weather ElementAverageHighLow
Temperature-3.3 °C3 °C (4:55 pm)-10 °C (1:55 am)
Dewpoint-10.9 °C-5 °C (9:55 pm)-16 °C (12:35 am)
Humidity56.8 %79 % (1:55 am)40 % (12:15 pm)
Barometer1024 hPa1028.1 hPa (2:35 am)1018.6 hPa (8:15 pm)
Wind Speed8.2 km/h24.1 km/h (11:55 pm)
Wind Gust38.9 km/h (11:35 pm)
Weather ElementAverage
Visibility16.1 km
Wind DirectionSSE (156.9 °)

Weather ElementTotal
Precipitation---
Heating Degree Days21.8 (Base 18.3)
Averaged from 70 records on 23 January, 2013
WEATHER CONDITIONS BREAKOUT
WIND DIRECTION BREAKOUT
WEATHER BY HOUR - 23 JANUARY, 2013
[ °F ]   °C
Local TimeTemperatureDewpointHumidityBarometerVisibilityWind DirectionWind SpeedGust SpeedPrecipitationEventsConditions
12:35 AM-8 °C-16 °C53 %1027.8 hPa16.1 kmCalmClear
12:55 AM-8 °C-15 °C58 %1027.8 hPa16.1 kmCalmClear
1:15 AM-9 °C-15 °C62 %1027.4 hPa16.1 kmCalmClear
1:35 AM-9 °C-14 °C68 %1027.4 hPa16.1 kmCalmClear
1:55 AM-10 °C-13 °C79 %1027.8 hPa16.1 kmCalmClear
2:15 AM-10 °C-15 °C67 %1027.8 hPa16.1 kmNNE (20°)5.6 km/hClear
2:35 AM-10 °C-14 °C73 %1028.1 hPa16.1 kmNorth (360°)5.6 km/hClear
2:55 AM-10 °C-15 °C67 %1028.1 hPa16.1 kmCalmClear
3:15 AM-10 °C-15 °C67 %1028.1 hPa16.1 kmCalmScattered Clouds
3:35 AM-10 °C-15 °C67 %1027.8 hPa16.1 kmCalmScattered Clouds
3:55 AM-9 °C-15 °C62 %1027.8 hPa16.1 kmCalmOvercast
4:15 AM-9 °C-15 °C62 %1027.8 hPa16.1 kmCalmOvercast
4:35 AM-9 °C-13 °C73 %1027.4 hPa16.1 kmCalmOvercast
4:55 AM-9 °C-13 °C73 %1027.8 hPa16.1 kmCalmOvercast
5:15 AM-8 °C-15 °C58 %1027.8 hPa16.1 kmCalmOvercast
5:35 AM-8 °C-14 °C63 %1027.8 hPa16.1 kmCalmOvercast
5:55 AM-8 °C-14 °C63 %1027.4 hPa16.1 kmCalmOvercast
6:15 AM-8 °C-14 °C63 %1027.4 hPa16.1 kmCalmOvercast
6:35 AM-8 °C-14 °C63 %1027.4 hPa16.1 kmCalmOvercast
6:55 AM-8 °C-13 °C68 %1027.8 hPa16.1 kmCalmOvercast
7:15 AM-7 °C-14 °C58 %1027.4 hPa16.1 kmCalmOvercast
7:55 AM-8 °C-13 °C68 %1027.8 hPa16.1 kmSSW (200°)5.6 km/hOvercast
8:15 AM-8 °C-14 °C63 %1027.4 hPa16.1 kmSW (220°)7.4 km/hMostly Cloudy
8:35 AM-8 °C-13 °C68 %1027.8 hPa16.1 kmCalmClear
8:55 AM-7 °C-13 °C63 %1027.8 hPa16.1 kmSW (220°)9.3 km/hMostly Cloudy
9:15 AM-7 °C-13 °C63 %1027.8 hPa16.1 kmSSW (210°)9.3 km/hOvercast
9:35 AM-6 °C-14 °C54 %1027.8 hPa16.1 kmSSW (210°)9.3 km/hOvercast
9:55 AM-6 °C-13 °C58 %1027.8 hPa16.1 kmSW (220°)7.4 km/hOvercast
10:15 AM-5 °C-13 °C54 %1028.1 hPa16.1 kmWSW (240°)7.4 km/hOvercast
10:35 AM-4 °C-13 °C50 %1027.8 hPa16.1 kmSW (230°)9.3 km/hOvercast
10:55 AM-3 °C-13 °C47 %1027.8 hPa16.1 kmSW (220°)7.4 km/hMostly Cloudy
11:15 AM-3 °C-14 °C43 %1027.4 hPa16.1 kmSW (230°)7.4 km/hClear
11:35 AM-2 °C-13 °C43 %1027.1 hPa16.1 kmSSW (200°)13 km/hClear
11:55 AM-2 °C-13 °C43 %1026.4 hPa16.1 kmSSW (200°)11.1 km/hClear
12:15 PM-1 °C-13 °C40 %1026.1 hPa16.1 kmSSW (210°)11.1 km/hMostly Cloudy
12:35 PM-1 °C-13 °C40 %1025.4 hPa16.1 kmSouth (180°)5.6 km/hOvercast
12:55 PM-1 °C-12 °C44 %1024.7 hPa16.1 kmSSW (200°)9.3 km/hMostly Cloudy
1:15 PM0 °C-12 °C41 %1024.4 hPa16.1 kmSW (220°)11.1 km/hScattered Clouds
1:35 PM0 °C-11 °C44 %1023.4 hPa16.1 kmSW (220°)14.8 km/hClear
1:55 PM0 °C-11 °C44 %1023.4 hPa16.1 kmSW (230°)14.8 km/hClear
2:15 PM1 °C-11 °C41 %1023 hPa16.1 kmWest (260°)13 km/h25.9 km/hClear
2:35 PM1 °C-10 °C44 %1022.4 hPa16.1 kmWest (260°)14.8 km/hClear
2:55 PM1 °C-10 °C44 %1022.4 hPa16.1 kmSSW (200°)14.8 km/hClear
3:15 PM2 °C-10 °C41 %1022 hPa16.1 kmWest (270°)14.8 km/hScattered Clouds
3:35 PM2 °C-9 °C44 %1021.7 hPa16.1 kmWSW (240°)18.5 km/hClear
3:55 PM2 °C-9 °C44 %1021.3 hPa16.1 kmSW (230°)13 km/hClear
4:15 PM2 °C-9 °C44 %1021.3 hPa16.1 kmSW (220°)16.7 km/hClear
4:35 PM2 °C-8 °C48 %1021 hPa16.1 kmWSW (240°)13 km/hClear
4:55 PM3 °C-8 °C45 %1020.7 hPa16.1 kmWSW (250°)18.5 km/h29.6 km/hClear
5:15 PM2 °C-8 °C48 %1020.3 hPa16.1 kmWSW (250°)16.7 km/h29.6 km/hClear
5:35 PM2 °C-8 °C48 %1020 hPa16.1 kmSW (230°)13 km/hClear
5:55 PM1 °C-8 °C52 %1020 hPa16.1 kmWSW (240°)9.3 km/hClear
6:15 PM1 °C-8 °C52 %1019.6 hPa16.1 kmWSW (240°)9.3 km/hClear
6:35 PM0 °C-8 °C55 %1020 hPa16.1 kmWest (260°)5.6 km/hClear
6:55 PM0 °C-8 °C55 %1019.6 hPa16.1 kmWest (270°)5.6 km/hClear
7:15 PM0 °C-7 °C60 %1019.6 hPa16.1 kmCalmClear
7:35 PM-1 °C-7 °C64 %1019.6 hPa16.1 kmCalmClear
7:55 PM-3 °C-7 °C74 %1019.3 hPa16.1 kmCalmClear
8:15 PM-2 °C-7 °C69 %1018.6 hPa16.1 kmCalmClear
8:35 PM-1 °C-7 °C64 %1018.6 hPa16.1 kmWSW (240°)11.1 km/hClear
8:55 PM0 °C-6 °C64 %1018.6 hPa16.1 kmWSW (250°)13 km/hScattered Clouds
9:15 PM1 °C-6 °C60 %1018.6 hPa16.1 kmWest (270°)14.8 km/hScattered Clouds
9:35 PM1 °C-6 °C60 %1018.6 hPa16.1 kmWest (270°)16.7 km/hMostly Cloudy
9:55 PM2 °C-5 °C60 %1019 hPa16.1 kmWest (280°)16.7 km/hMostly Cloudy
10:15 PM2 °C-5 °C60 %1019.3 hPa16.1 kmWest (280°)20.4 km/h29.6 km/hScattered Clouds
10:35 PM2 °C-5 °C60 %1019.3 hPa16.1 kmWNW (290°)18.5 km/h27.8 km/hClear
10:55 PM2 °C-5 °C60 %1019.3 hPa16.1 kmWNW (300°)18.5 km/h27.8 km/hClear
11:15 PM2 °C-6 °C56 %1019.6 hPa16.1 kmWNW (300°)22.2 km/h33.3 km/hClear
11:35 PM1 °C-6 °C60 %1019.6 hPa16.1 kmWNW (300°)20.4 km/h38.9 km/hClear
11:55 PM0 °C-6 °C64 %1020 hPa16.1 kmWNW (300°)24.1 km/h31.5 km/hClear
Hourly data recorded from KDVK, located 0 kilometers away from Nicholasville, Kentucky







STORIES FROM OUR PARTNERS